GW4151 Weather Reports


time (UTC)temp
F
wind
direction
speed
knots
gust
knots
rain 1hr
in
rain 24hr
in
rain mn
in
humidity
%
barometer
mb
20260902194605 93 259 4.3 7.8 0.00 0.00 0.00 57 992.5
20260902193102 91 196 2.6 5.2 0.00 0.00 0.00 63 992.9
20260902191601 92 267 3.5 5.2 0.00 0.00 0.00 60 993.0
20260902190058 91 206 4.3 7.0 0.00 0.00 0.00 62 993.3
20260902184556 90 204 3.5 7.0 0.00 0.00 0.00 63 992.9
20260902183056 91 219 4.3 8.7 0.00 0.00 0.00 63 992.8
20260902181556 90 203 3.5 7.0 0.00 0.00 0.00 65 993.1
20260902180051 90 270 0.0 5.2 0.00 0.00 0.00 67 993.5
20260902174548 90 192 1.7 6.1 0.00 0.00 0.00 67 993.6
20260902173044 91 154 1.7 5.2 0.00 0.00 0.00 68 993.7
20260902171541 89 196 2.6 5.2 0.00 0.00 0.00 71 994.1
20260902170039 90 206 3.5 3.5 0.00 0.00 0.00 68 994.1
20260902164534 89 213 1.7 2.6 0.00 0.00 0.00 72 994.1
20260902163033 87 229 1.7 3.5 0.00 0.00 0.00 75 994.2
20260902161529 87 91 3.5 6.1 0.00 0.00 0.00 76 994.0
20260902160027 86 165 1.7 2.6 0.00 0.00 0.00 78 994.1
20260902154526 86 122 1.7 2.6 0.00 0.00 0.00 77 994.0
20260902153027 84 155 1.7 2.6 0.00 0.00 0.00 77 994.3
20260902151526 86 142 1.7 5.2 0.00 0.00 0.00 76 994.1
20260902150021 84 178 0.9 0.9 0.00 0.00 0.00 79 994.2
20260902144519 83 256 2.6 5.2 0.00 0.00 0.00 80 994.5
20260902143016 82 198 1.7 2.6 0.00 0.00 0.00 81 994.3
20260902141512 82 231 3.5 5.2 0.00 0.00 0.00 84 994.5
20260902140009 81 35 1.7 2.6 0.00 0.00 0.00 86 994.7
20260902134505 80 176 1.7 6.1 0.00 0.00 0.00 89 994.9
20260902133001 81 274 2.6 5.2 0.00 0.00 0.00 86 994.6
20260902131458 80 172 0.9 2.6 0.00 0.00 0.00 87 993.7
20260902125954 77 120 1.7 1.7 0.00 0.00 0.00 92 994.0
20260902124454 76 196 0.0 1.7 0.00 0.00 0.00 93 994.1
20260902122949 75 156 0.0 0.0 0.00 0.00 0.00 95 994.5
20260902121447 74 173 0.9 0.9 0.00 0.00 0.00 97 994.2
20260902115943 73 172 0.0 0.0 0.00 0.00 0.00 98 994.6
20260902114443 73 180 0.0 0.0 0.00 0.00 0.00 98 994.6
20260902112939 73 210 0.0 0.9 0.00 0.00 0.00 98 994.6
20260902111440 73 183 0.0 0.0 0.00 0.00 0.00 97 994.6
20260902105937 74 183 0.0 0.0 0.00 0.00 0.00 96 994.2
20260902104434 75 212 0.9 0.9 0.00 0.00 0.00 95 994.3
20260902102930 75 203 0.0 0.9 0.00 0.00 0.00 95 994.0
20260902101429 75 201 0.0 0.9 0.00 0.00 0.00 94 994.2
20260902095924 75 197 0.0 1.7 0.00 0.00 0.00 95 994.3
20260902094420 75 219 0.0 1.7 0.00 0.00 0.00 94 994.1
20260902092920 76 201 0.0 0.0 0.00 0.00 0.00 94 994.3
20260902091417 76 237 0.0 0.0 0.00 0.00 0.00 94 994.5
20260902085912 76 189 0.0 1.7 0.00 0.00 0.00 92 994.4
20260902084411 77 192 0.9 1.7 0.00 0.00 0.00 92 993.8
20260902082907 77 197 0.9 0.9 0.00 0.00 0.00 91 993.7
20260902081407 77 211 1.7 5.2 0.00 0.00 0.00 91 993.7
20260902075903 78 234 1.7 3.5 0.00 0.00 0.00 90 993.5
20260902074402 78 209 0.9 3.5 0.00 0.00 0.00 90 993.8
20260902072900 78 249 0.9 2.6 0.00 0.00 0.00 90 993.8
20260902071358 78 174 0.0 0.9 0.00 0.00 0.00 91 993.8
20260902065854 78 219 1.7 1.7 0.00 0.00 0.00 92 993.9
20260902064353 78 213 0.9 1.7 0.00 0.00 0.00 93 993.7
20260902062848 77 224 0.0 0.9 0.00 0.00 0.00 95 993.8
20260902061348 77 234 0.0 0.0 0.00 0.00 0.00 96 993.7
20260902055847 77 195 0.0 0.0 0.00 0.00 0.00 96 993.7
20260902054346 76 186 0.0 0.0 0.00 0.00 0.00 98 993.5
20260902052841 76 197 0.0 0.0 0.00 0.00 0.00 98 993.6
20260902051337 77 178 0.0 0.0 0.00 0.00 0.00 97 993.6
20260902045838 77 192 0.0 0.0 0.00 0.00 0.00 97 993.8
20260902044337 77 172 0.0 2.6 0.00 0.00 0.00 96 993.9
20260902042832 77 158 1.7 2.6 0.00 0.00 0.00 96 993.7
20260902041327 76 166 0.0 0.0 0.00 0.00 0.00 95 993.8
20260902035826 75 232 2.6 2.6 0.00 0.01 0.01 97 993.7
20260902034322 74 212 0.9 0.9 0.00 0.00 0.00 97 994.1
20260902032820 74 182 0.0 0.0 0.00 0.00 0.00 98 994.0
20260902031317 74 142 0.0 0.0 0.00 0.00 0.00 98 993.8
20260902025812 74 128 0.0 0.0 0.00 0.00 0.00 98 993.9
20260902024309 74 166 0.0 0.0 0.00 0.00 0.00 97 994.0
20260902022805 74 171 0.0 0.0 0.00 0.00 0.00 97 994.1
20260902021302 74 180 0.0 0.0 0.00 0.00 0.00 97 994.1
20260902015801 74 182 0.0 0.9 0.00 0.00 0.00 97 994.0
20260902014302 74 174 0.0 0.0 0.00 0.00 0.00 96 993.9
20260902012757 75 172 0.0 0.0 0.00 0.00 0.00 96 993.9
20260902011254 75 191 0.0 0.0 0.00 0.00 0.00 96 993.7
20260902005753 75 170 0.0 0.0 0.00 0.00 0.00 95 993.4
20260902004250 75 159 0.0 0.0 0.00 0.00 0.00 95 993.1
20260902002748 76 186 0.0 0.9 0.00 0.00 0.00 94 993.2
20260902001243 76 205 0.9 0.9 0.00 0.00 0.00 92 993.5
20260901235738 76 221 0.0 0.9 0.00 0.00 0.00 91 994.1
20260901234233 77 242 0.9 2.6 0.00 0.00 0.00 90 994.1
20260901232730 78 274 4.3 5.2 0.00 0.00 0.00 87 993.9
20260901231229 80 173 2.6 5.2 0.00 0.00 0.00 85 994.3
20260901225726 80 208 2.6 5.2 0.00 0.00 0.00 86 994.5
20260901224224 81 228 0.9 1.7 0.00 0.00 0.00 85 994.0
20260901222722 81 196 0.9 3.5 0.00 0.00 0.00 84 994.0
20260901221221 82 178 0.9 3.5 0.00 0.00 0.00 83 993.6
20260901215719 83 200 2.6 5.2 0.00 0.00 0.00 82 994.5
20260901214217 83 241 1.7 5.2 0.00 0.00 0.00 81 994.3
20260901212718 83 278 4.3 5.2 0.00 0.00 0.00 79 994.4
20260901211216 84 237 2.6 3.5 0.00 0.00 0.00 77 994.4
20260901205714 86 239 5.2 7.8 0.00 0.00 0.00 75 994.3
20260901204211 86 298 5.2 7.0 0.00 0.00 0.00 75 994.1
20260901202706 87 259 2.6 7.0 0.00 0.00 0.00 74 994.0
20260901201203 88 257 7.0 8.7 0.00 0.00 0.00 73 994.1
20260901195701 87 236 4.3 5.2 0.00 0.00 0.00 76 994.0